| time (UTC) | temp C | wind direction | speed KPH | gust KPH | rain 1hr cm | rain 24hr cm | rain mn cm | humidity % | barometer mb |
| 20260505014518 | 16 | 145 | 1.6 | 8.0 | 0.00 | 0.00 | 0.00 | 47 | 1010.4 |
| 20260505013013 | 16 | 296 | 1.6 | 14.5 | 0.00 | 0.00 | 0.00 | 46 | 1010.0 |
| 20260505011613 | 16 | 292 | 3.2 | 14.5 | 0.00 | 0.00 | 0.00 | 45 | 1009.8 |
| 20260505010112 | 17 | 326 | 3.2 | 8.0 | 0.00 | 0.00 | 0.00 | 45 | 1009.4 |
| 20260505004521 | 17 | 49 | 1.6 | 9.7 | 0.00 | 0.00 | 0.00 | 44 | 1009.2 |
| 20260505003010 | 17 | 335 | 1.6 | 9.7 | 0.00 | 0.00 | 0.00 | 43 | 1008.9 |
| 20260505001510 | 17 | 233 | 3.2 | 11.3 | 0.00 | 0.00 | 0.00 | 39 | 1008.3 |
| 20260505000112 | 18 | 145 | 0.0 | 3.2 | 0.00 | 0.00 | 0.00 | 40 | 1008.1 |
| 20260504234511 | 18 | 48 | 1.6 | 6.4 | 0.00 | 0.00 | 0.00 | 37 | 1007.8 |
| 20260504233010 | 19 | 346 | 0.0 | 4.8 | 0.00 | 0.00 | 0.00 | 39 | 1007.6 |
| 20260504231509 | 20 | 343 | 0.0 | 8.0 | 0.00 | 0.00 | 0.00 | 35 | 1007.4 |
| 20260504224510 | 20 | 315 | 3.2 | 8.0 | 0.00 | 0.00 | 0.00 | 33 | 1007.0 |
| 20260504223007 | 21 | 299 | 1.6 | 4.8 | 0.00 | 0.00 | 0.00 | 32 | 1006.9 |
| 20260504221508 | 21 | 317 | 1.6 | 8.0 | 0.00 | 0.00 | 0.00 | 32 | 1006.8 |
| 20260504214508 | 21 | 321 | 3.2 | 11.3 | 0.00 | 0.00 | 0.00 | 30 | 1006.9 |
| 20260504213007 | 21 | 336 | 4.8 | 12.9 | 0.00 | 0.00 | 0.00 | 30 | 1006.9 |
| 20260504211507 | 21 | 313 | 4.8 | 9.7 | 0.00 | 0.00 | 0.00 | 30 | 1006.9 |
| 20260504204511 | 21 | 330 | 3.2 | 12.9 | 0.00 | 0.00 | 0.00 | 30 | 1007.0 |
| 20260504203003 | 21 | 360 | 3.2 | 17.7 | 0.00 | 0.00 | 0.00 | 29 | 1007.0 |
| 20260504201502 | 22 | 279 | 4.8 | 14.5 | 0.00 | 0.00 | 0.00 | 29 | 1006.9 |
| 20260504194559 | 21 | 321 | 4.8 | 11.3 | 0.00 | 0.00 | 0.00 | 29 | 1007.0 |
| 20260504193101 | 22 | 283 | 6.4 | 19.3 | 0.00 | 0.00 | 0.00 | 29 | 1007.1 |
| 20260504191557 | 22 | 219 | 6.4 | 14.5 | 0.00 | 0.00 | 0.00 | 29 | 1007.0 |
| 20260504190156 | 22 | 116 | 3.2 | 14.5 | 0.00 | 0.00 | 0.00 | 28 | 1007.3 |
| 20260504184600 | 22 | 317 | 4.8 | 24.1 | 0.00 | 0.00 | 0.00 | 27 | 1007.2 |
| 20260504183056 | 21 | 338 | 6.4 | 19.3 | 0.00 | 0.00 | 0.00 | 28 | 1007.5 |
| 20260504181554 | 21 | 323 | 3.2 | 14.5 | 0.00 | 0.00 | 0.00 | 30 | 1007.5 |
| 20260504180152 | 22 | 284 | 3.2 | 12.9 | 0.00 | 0.00 | 0.00 | 28 | 1007.5 |
| 20260504174549 | 21 | 292 | 6.4 | 19.3 | 0.00 | 0.00 | 0.00 | 30 | 1007.6 |
| 20260504173046 | 21 | 350 | 6.4 | 19.3 | 0.00 | 0.00 | 0.00 | 28 | 1007.8 |
| 20260504171546 | 21 | 310 | 6.4 | 16.1 | 0.00 | 0.00 | 0.00 | 28 | 1008.1 |
| 20260504160136 | 19 | 194 | 6.4 | 16.1 | 0.00 | 0.00 | 0.00 | 34 | 1008.6 |
| 20260504150125 | 18 | 329 | 3.2 | 14.5 | 0.00 | 0.00 | 0.00 | 37 | 1009.4 |
| 20260504140114 | 16 | 348 | 3.2 | 12.9 | 0.00 | 0.00 | 0.00 | 39 | 1010.1 |
| 20260504120147 | 10 | 305 | 3.2 | 11.3 | 0.00 | 0.03 | 0.00 | 58 | 1010.9 |
| 20260504081537 | 6 | 346 | 0.0 | 1.6 | 0.00 | 0.03 | 0.00 | 71 | 1011.1 |
| 20260504044558 | 1 | 332 | 0.0 | 1.6 | 0.00 | 0.03 | 0.03 | 79 | 1011.1 |
| 20260504043100 | 1 | 331 | 0.0 | 3.2 | 0.00 | 0.03 | 0.03 | 79 | 1011.1 |
| 20260504041555 | 1 | 331 | 0.0 | 0.0 | 0.00 | 0.03 | 0.03 | 78 | 1011.1 |
| 20260504040054 | 1 | 331 | 0.0 | 0.0 | 0.00 | 0.03 | 0.03 | 77 | 1011.0 |
| 20260504034554 | 1 | 332 | 0.0 | 1.6 | 0.00 | 0.03 | 0.03 | 77 | 1011.0 |
| 20260504033053 | 2 | 331 | 0.0 | 0.0 | 0.00 | 0.03 | 0.03 | 75 | 1010.8 |
| 20260504031552 | 2 | 331 | 0.0 | 1.6 | 0.00 | 0.03 | 0.03 | 73 | 1010.8 |
| 20260504030048 | 2 | 331 | 0.0 | 3.2 | 0.00 | 0.03 | 0.03 | 72 | 1010.9 |
| 20260504024549 | 2 | 331 | 0.0 | 0.0 | 0.00 | 0.03 | 0.03 | 71 | 1010.8 |
| 20260504023043 | 3 | 331 | 0.0 | 0.0 | 0.00 | 0.03 | 0.03 | 70 | 1010.8 |
| 20260504021540 | 3 | 331 | 0.0 | 0.0 | 0.00 | 0.03 | 0.03 | 68 | 1010.8 |
| 20260504020057 | 4 | 331 | 0.0 | 1.6 | 0.00 | 0.03 | 0.03 | 66 | 1010.5 |
| 20260504014553 | 4 | 332 | 0.0 | 1.6 | 0.00 | 0.03 | 0.03 | 65 | 1010.4 |